Location: Kawakawa
(35.3830°S, 174.0670°E)
Time: 19:41:31
(UTC+13:00)

Explorer 7 - All Passes

Search period start: 11 December 2019 00:00
Search period end: 21 December 2019 00:00
Orbit: 485 x 680 km, 50.3° (Epoch: 10 December)

Date Brightness Start Highest point End Pass type
(mag) Time Alt. Az. Time Alt. Az. Time Alt. Az.
11 Dec - 04:38:03 10° NW 04:41:58 89° SW 04:45:47 10° SE visible
11 Dec - 06:20:20 10° WSW 06:22:52 17° SSW 06:25:25 10° SSE daylight
11 Dec - 09:44:27 10° SSW 09:46:40 14° SSE 09:48:55 10° SE daylight
11 Dec - 11:23:51 10° SW 11:27:46 61° SE 11:31:52 10° ENE daylight
11 Dec - 13:05:23 10° W 13:07:58 16° NW 13:10:37 10° NNW daylight
12 Dec - 03:03:57 10° N 03:06:43 18° NE 03:09:25 10° E visible
12 Dec - 04:43:08 10° WNW 04:46:56 50° SW 04:50:40 10° SE visible
12 Dec - 06:26:21 10° SW 06:28:08 13° SSW 06:29:55 10° S daylight
12 Dec - 09:49:02 10° SSW 09:51:53 19° SSE 09:54:49 10° ESE daylight
12 Dec - 11:28:46 10° SW 11:32:43 77° NW 11:36:51 10° NE daylight
13 Dec - 03:07:56 10° NNW 03:11:31 33° NE 03:15:01 10° ESE visible
13 Dec - 04:48:29 10° W 04:51:58 31° SSW 04:55:25 10° SSE visible
13 Dec - 06:32:51 10° SSW 06:33:27 10° SSW 06:34:04 10° S daylight
13 Dec - 09:53:41 10° SSW 09:57:02 27° SSE 10:00:30 10° E daylight
13 Dec - 11:33:52 10° WSW 11:37:36 41° NW 11:41:30 10° NNE daylight
14 Dec - 03:12:26 10° NW 03:16:23 61° NE 03:20:12 10° ESE visible
14 Dec - 04:54:05 10° WSW 04:57:06 21° SSW 05:00:06 10° SSE visible
14 Dec - 08:19:18 10° S 08:20:50 12° SSE 08:22:22 10° SE daylight
14 Dec - 09:58:24 10° SW 10:02:07 42° SE 10:05:56 10° ENE daylight
14 Dec - 11:39:16 10° WSW 11:42:26 23° NW 11:45:43 10° N daylight
15 Dec - 01:39:28 10° NNE 01:41:13 12° NE 01:42:57 10° ENE visible
15 Dec - 03:17:19 10° NW 03:21:19 74° SW 03:25:11 10° SE visible
15 Dec - 04:59:56 10° WSW 05:02:19 15° SSW 05:04:40 10° SSE visible
15 Dec - 08:23:46 10° SSW 08:26:06 15° SSE 08:28:28 10° ESE daylight
15 Dec - 10:03:14 10° SW 10:07:06 73° SE 10:11:07 10° NE daylight
15 Dec - 11:45:23 10° W 11:47:12 13° NW 11:49:04 10° NNW daylight
16 Dec - 01:42:45 10° N 01:46:00 23° NE 01:49:08 10° ESE visible
16 Dec - 03:22:29 10° WNW 03:26:18 43° SW 03:30:01 10° SE visible
16 Dec - 05:06:02 10° SW 05:07:35 12° SSW 05:09:08 10° S visible
16 Dec - 08:28:20 10° SSW 08:31:18 21° SSE 08:34:19 10° ESE daylight
16 Dec - 10:08:12 10° WSW 10:12:02 62° NW 10:16:00 10° NE daylight
17 Dec - 01:46:57 10° NNW 01:50:49 41° NE 01:54:33 10° ESE visible
17 Dec - 03:27:55 10° W 03:31:23 28° SSW 03:34:45 10° SSE visible
17 Dec - 06:54:24 10° S 06:54:57 10° SSE 06:55:31 10° SSE daylight
17 Dec - 08:33:00 10° SSW 08:36:26 30° SSE 08:39:56 10° E daylight
17 Dec - 10:13:23 10° WSW 10:16:54 33° NW 10:20:31 10° NNE daylight
18 Dec - 01:51:36 10° NW 01:55:42 75° NE 01:59:38 10° SE visible
18 Dec - 03:33:35 10° WSW 03:36:31 19° SSW 03:39:24 10° SSE visible
18 Dec - 06:58:31 10° S 07:00:17 13° SSE 07:02:02 10° SE daylight
18 Dec - 08:37:45 10° SW 08:41:29 49° SE 08:45:17 10° ENE daylight
18 Dec - 10:18:57 10° W 10:21:42 19° NW 10:24:31 10° N daylight
19 Dec - 00:17:52 10° NNE 00:20:28 16° NE 00:22:59 10° E night (unlit)
19 Dec - 01:56:34 10° WNW 02:00:39 62° SW 02:04:34 10° SE visible
19 Dec - 03:39:29 10° SW 03:41:44 15° SSW 03:43:57 10° SSE visible
19 Dec - 07:03:00 10° SSW 07:05:32 17° SSE 07:08:04 10° ESE daylight
19 Dec - 08:42:37 10° SW 08:46:28 87° SE 08:50:22 10° NE daylight
20 Dec - 00:21:37 10° NNW 00:25:15 28° NE 00:28:45 10° ESE visible
20 Dec - 02:01:49 10° WNW 02:05:40 37° SW 02:09:22 10° SE visible
20 Dec - 03:45:39 10° SW 03:47:02 11° SSW 03:48:24 10° S visible
20 Dec - 07:07:37 10° SSW 07:10:43 23° SSE 07:13:50 10° E daylight
20 Dec - 08:47:39 10° WSW 08:51:22 50° NW 08:55:09 10° NNE daylight
